Voltar ao catálogo

STARLINK-34294

AtivoComunicaçõesVLEO
NORAD 64599·PAYLOAD·🇺🇸 United States

Lançado Jun 25, 2025 de Cape Canaveral Space Force Station

Loading…

Próximas Passagens (próximas 24 horas)

TLE

AtualizadoSource: CelesTrak SupGP

Época: Sep 15, 2026, 03:25 UTC

1 64599C 25137F   26258.14284722 -.00019870  00000+0 -58713-3 0  2585
2 64599  53.1576 172.5659 0001272  76.1781 112.1100 15.34397591    13

Acompanhe STARLINK-34294 em tempo real com AllMySat

Download on the App Store